Погода в Уфе-Шигирях

Россия / Свердловская область     56°26′53″N   58°55′32″E
темп.,
°C
ветер,
м/с
пор.,
м/с
влажн.,
%
обл.,
%
осадки,
мм/ч
давл.,
гПа
погр.,
м
8 мая, сб
сб823:00+10юв007776 0.0 101810
02:00+10юв117458 0.0 101810
05:00+8вюв117899 0.0 101810
08:00+13ююз0159100 0.0 1018115
11:00+19з114035 0.0 10171621
14:00+20з2232100 0.0 10162418
17:00+15всв3555100 0.1 1017461
20:00+13ссв126794 0.1 101632
9 мая, вс
вс923:00+11ссв2275100 0.2 101712
02:00+10с1177100 0.0 101710
05:00+9ссв118198 0.0 101810
08:00+13св1264100 0.0 1017187
11:00+18св234599 0.0 10171085
14:00+21всв2330100 0.0 10162939
17:00+18ссв124099 0.0 1018387
20:00+15зсз115271 0.0 101811
10 мая, пн
пн1023:00+12всв116164 0.0 102010
02:00+10всв116777 0.0 102010
05:00+9в11702 0.0 102210
08:00+15в13500 0.0 1022207
11:00+20вюв23374 0.0 10221829
14:00+22вюв333085 0.0 10222838
17:00+22вюв3227100 0.0 10222681
20:00+17юв2446100 0.0 102296
11 мая, вт
вт1123:00+12юв225894 0.0 102416
02:00+11ю2260100 0.0 102429
05:00+11ю1159100 0.0 102520
08:00+14ссз1260100 0.0 1026250
11:00+18сз3557100 0.0 10261116
14:00+18зсз465410 0.3 10261568
17:00+18ссз45366 0.3 10261693
20:00+15ссз37475 0.0 1028253
12 мая, ср
ср1223:00+9с236046 0.0 102943
02:00+8с226199 0.0 103035
05:00+6с226760 0.0 103121
08:00+11с2450100 0.0 1031265
11:00+16с244258 0.0 1030983
14:00+18ссз244445 0.0 10301099
17:00+20ссз4643100 0.0 10282048
20:00+16ссз2362100 0.0 102858